#timestamp,LO_Frequency,Hit 
1500674415.5,286047078.0,N
1500674435.3,286047077.8,N
1500674455.1,286047077.4,N
1500674475.9,286047077.7,N
1500674495.7,286047076.8,N
1500674515.5,286047077.4,N
1500674535.3,286047075.4,N
1500674555.2,286047075.3,N
1500674575.0,286047076.7,N
1500674575.9,286047076.7,N
1500674595.7,286047079.2,N
1500674615.6,286047077.3,N
1500674635.4,286047077.0,N
1500674655.2,286047077.7,N
1500674675.1,286047077.2,N
1500674676.0,286047077.2,N
1500674695.8,286047079.6,N
1500674715.6,286047077.3,N
1500674735.5,286047077.6,N
1500674755.3,286047077.8,N
1500674775.1,286047077.8,N
1500674795.9,286047077.2,N
1500674815.7,286047077.6,N
1500674835.5,286047077.6,N
1500674855.4,286047075.4,N
1500674875.2,286047075.7,N
1500674895.0,286047074.9,N
1500674895.9,286047074.9,N
1500674915.8,286047077.5,N
1500674935.6,286047077.9,N
1500674955.4,286047077.4,N
1500674975.3,286047077.1,N
1500674995.1,286047077.1,N
1500674996.0,286047077.1,N
1500675015.8,286047077.6,N
1500675035.7,286047074.9,N
1500675055.5,286047075.4,N
1500675075.3,286047077.9,N
1500675095.2,286047077.9,N
1500675115.9,286047075.2,N
1500675135.7,286047076.3,N
1500675155.6,286047078.0,N
1500675175.4,286047075.4,N
1500675195.2,286047075.2,N
1500675215.1,286047077.5,N
1500675216.0,286047077.5,N
1500675235.8,286047077.8,N
1500675255.6,286047076.5,N
1500675275.5,286047078.7,N
1500675295.3,286047080.9,N
1500675315.1,286047078.7,N
1500675335.9,286047078.4,N
1500675355.7,286047081.1,N
1500675375.5,286047080.9,N
1500675395.4,286047079.6,N
1500675415.2,286047077.4,N
1500675435.0,286047077.3,N
1500675435.9,286047077.3,N
1500675455.8,286047078.4,N
1500675475.6,286047081.2,N
1500675495.4,286047081.1,N
1500675515.3,286047078.5,N
1500675535.1,286047078.4,N
1500675536.0,286047078.4,N
1500675555.8,286047080.3,N
1500675575.7,286047082.4,N
1500675595.5,286047081.0,N
1500675615.3,286047080.0,N
1500675635.1,286047081.8,N
1500675655.9,286047081.9,N
1500675675.7,286047082.6,N
1500675695.5,286047079.8,N
1500675715.4,286047080.2,N
1500675735.2,286047080.0,N
1500675755.0,286047080.4,N
1500675755.9,286047080.4,N
1500675775.8,286047082.7,N
1500675795.6,286047080.2,N
1500675815.4,286047082.5,N
1500675835.3,286047082.3,N
1500675855.1,286047083.3,N
1500675875.8,286047084.2,N
1500675895.7,286047083.8,N
1500675915.5,286047084.1,N
1500675935.3,286047083.8,N
1500675955.2,286047084.2,N
1500675975.9,286047083.4,N
1500675995.7,286047083.8,N
1500676015.6,286047083.3,N
1500676035.4,286047086.0,N
1500676055.2,286047083.2,N
1500676075.1,286047083.3,N
1500676076.0,286047083.3,N
1500676095.8,286047084.2,N
1500676115.6,286047083.1,N
1500676135.5,286047083.7,N
1500676155.3,286047085.9,N
1500676175.1,286047084.2,N
1500676195.9,286047085.7,N
1500676215.7,286047083.0,N
1500676235.5,286047085.6,N
1500676255.3,286047085.0,N
1500676275.2,286047087.3,N
1500676295.0,286047085.0,N
1500676295.9,286047085.0,N
1500676315.8,286047087.4,N
1500676335.6,286047087.6,N
1500676355.4,286047084.6,N
1500676375.2,286047087.3,N
1500676395.1,286047086.3,N
1500676396.0,286047086.3,N
1500676415.8,286047084.6,N
1500676435.6,286047085.1,N
1500676455.5,286047083.0,N
1500676475.3,286047085.5,N
1500676495.1,286047083.3,N
1500676515.9,286047085.1,N
1500676535.7,286047085.5,N
1500676555.5,286047083.3,N
1500676575.4,286047086.0,N
1500676595.2,286047085.5,N
1500676615.0,286047085.1,N
1500676615.9,286047085.1,N
1500676635.8,286047087.3,N
1500676655.6,286047087.1,N
1500676675.4,286047087.5,N
1500676695.3,286047087.2,N
1500676715.1,286047088.8,N
1500676716.0,286047088.8,N
1500676735.8,286047085.0,N
1500676755.7,286047084.8,N
1500676775.5,286047087.4,N
1500676795.3,286047085.0,N
1500676815.2,286047087.3,N
1500676835.9,286047086.1,N
1500676855.7,286047087.0,N
1500676875.6,286047084.6,N
1500676895.4,286047087.1,N
1500676915.2,286047087.0,N
1500676935.1,286047086.4,N
1500676936.0,286047086.4,N
1500676955.8,286047087.2,N
1500676975.6,286047084.5,N
1500676995.5,286047086.5,N
1500677015.3,286047088.3,N
1500677035.1,286047089.2,N
1500677055.8,286047087.9,N
1500677075.7,286047090.6,N
1500677095.5,286047090.8,N
1500677115.3,286047088.3,N
1500677135.2,286047086.5,N
1500677155.0,286047088.8,N
1500677155.9,286047088.8,N
1500677175.7,286047088.9,N
1500677195.6,286047090.3,N
1500677215.4,286047086.3,N
1500677235.2,286047087.9,N
1500677255.1,286047090.7,N
1500677256.0,286047090.7,N
1500677275.8,286047088.5,N
1500677295.6,286047087.9,N
1500677315.5,286047087.9,N
1500677335.3,286047087.7,N
1500677355.1,286047090.6,N
1500677375.9,286047087.9,N
1500677395.7,286047090.5,N
1500677415.5,286047089.7,N
1500677435.4,286047090.0,N
1500677455.2,286047089.6,N
1500677475.0,286047088.3,N
1500677475.9,286047088.3,N
1500677495.8,286047089.9,N
1500677515.6,286047090.4,N
1500677535.4,286047090.7,N
1500677555.3,286047090.3,N
1500677575.1,286047088.5,N
1500677576.0,286047088.5,N
1500677595.8,286047090.5,N
1500677615.7,286047090.4,N
1500677635.5,286047089.8,N
1500677655.3,286047092.0,N
1500677675.2,286047090.7,N
1500677695.9,286047090.6,N
1500677715.7,286047091.5,N
1500677735.6,286047089.4,N
1500677755.4,286047092.4,N
1500677775.2,286047091.5,N
1500677795.0,286047089.9,N
1500677795.9,286047089.9,N
1500677815.8,286047091.9,N
1500677835.6,286047090.3,N
1500677855.4,286047090.2,N
1500677875.3,286047089.5,N
1500677895.1,286047090.5,N
1500677915.8,286047090.0,N
1500677935.7,286047091.0,N
1500677955.5,286047091.0,N
1500677975.3,286047092.4,N
1500677995.2,286047092.1,N
